Wind_Speed
16 16 16 16 16 17 17 16 13 11 10 10 10 9 8 7 5 8 11 11 7 4 5 6 6 8 10 9 9 11 11 13 14 15 15 12 10 11 12 13 13 11 12 13 14 15 16 17 16 16 16 14 10 8 10 12 11 14 17 17 15 13 10 10 11 11 14 17 19 21 22 23 23 21 20 15 7 4 6 5 7 7 7 9 4 5 18
17 17 17 17 18 18 19 19 17 15 13 11 10 9 9 8 6 9 12 11 7 6 7 8 10 12 13 12 13 14 13 14 16 16 14 10 11 13 14 16 16 16 16 17 16 16 15 14 15 16 17 16 12 11 14 13 9 11 14 16 16 15 13 11 10 10 11 12 11 15 18 21 24 25 24 17 9 7 9 5 5 6 6 6 4 6 18
18 18 18 18 18 18 19 20 20 18 16 15 13 12 11 9 8 8 9 10 10 9 9 11 12 15 15 14 15 16 16 17 18 18 14 10 12 15 15 17 19 19 20 20 19 17 15 14 14 16 18 18 18 19 19 16 11 10 12 15 17 15 14 13 9 6 6 6 6 9 12 16 20 23 22 18 13 13 12 8 6 5 6 7 7 12 22
18 18 18 18 18 18 18 19 19 19 17 17 16 14 14 12 10 8 8 9 11 11 12 12 12 14 16 16 17 19 21 21 21 18 13 9 12 13 12 14 16 17 19 20 19 19 19 16 15 15 17 19 20 22 21 20 15 9 7 10 12 13 16 17 16 15 13 12 12 13 15 18 22 24 23 21 21 22 17 13 13 12 10 15 18 18 23
19 19 19 19 18 18 18 18 18 18 17 17 16 15 14 14 13 11 10 9 9 10 12 13 13 14 15 17 18 19 20 19 19 16 12 11 13 13 10 10 10 11 15 17 17 18 18 17 16 16 17 19 20 21 21 21 19 12 8 8 8 12 15 15 17 19 17 16 17 17 18 21 25 27 28 29 29 28 24 20 20 17 12 17 23 20 21
22 22 21 21 20 20 19 19 19 18 17 16 16 15 14 15 14 14 13 13 12 12 14 15 16 17 17 16 14 13 12 11 11 10 9 10 13 13 10 9 7 7 11 14 15 16 16 16 17 18 19 21 21 21 19 20 21 17 12 11 9 11 14 14 16 18 17 18 18 17 17 20 23 25 27 26 25 25 24 22 20 18 15 20 26 25 23
23 23 23 22 22 21 21 20 20 19 18 17 16 15 15 15 15 15 15 15 16 16 16 18 18 18 16 13 8 7 9 9 9 10 10 11 13 15 13 10 9 9 12 14 16 17 17 17 18 20 21 21 21 20 17 18 20 18 15 14 13 14 16 14 15 17 18 18 18 17 18 20 24 27 25 23 21 21 21 21 20 21 22 25 27 27 26
22 22 22 21 21 21 20 20 19 19 19 18 17 16 15 15 14 14 15 15 15 16 16 17 17 15 14 11 7 7 9 10 11 12 13 13 14 16 15 13 12 11 13 16 18 19 19 19 19 21 22 22 21 21 19 19 20 21 18 16 15 17 17 14 12 14 15 14 15 17 18 21 26 28 25 23 23 22 22 23 23 22 22 23 24 27 28
20 21 21 21 20 20 19 19 18 18 17 16 16 16 15 15 14 14 14 13 14 14 14 15 15 14 14 12 10 11 11 11 11 11 11 13 15 16 18 18 17 16 15 17 20 21 22 22 21 20 21 22 23 24 24 23 23 24 23 21 19 18 19 16 13 14 17 17 18 19 19 22 28 31 28 25 26 26 26 24 22 21 21 23 23 26 29
20 21 21 21 20 20 19 18 18 17 16 15 15 14 14 14 14 14 13 12 13 14 13 14 15 15 15 13 12 13 13 13 15 14 12 12 13 15 18 19 20 20 20 20 20 21 24 25 25 23 22 23 25 26 28 27 27 28 27 28 27 24 22 19 15 16 18 15 13 16 15 17 24 27 24 22 22 24 23 19 16 17 19 20 20 21 23
20 20 20 20 20 19 19 18 18 17 16 14 14 13 13 14 13 14 13 12 13 14 13 14 16 16 16 16 16 16 15 14 15 15 15 15 16 17 18 20 22 23 23 23 23 23 24 25 26 28 29 30 32 33 34 33 32 32 32 32 33 31 29 25 19 17 16 13 11 12 11 12 16 19 17 14 14 16 16 16 16 17 19 19 19 19 20
20 19 19 19 19 18 18 18 17 16 15 14 14 13 13 14 13 14 14 12 12 14 14 15 18 18 19 19 19 20 19 16 15 15 15 15 17 19 20 21 22 22 21 22 23 23 24 26 28 29 29 30 33 36 38 39 39 38 37 37 36 34 32 30 27 22 19 17 13 8 9 14 16 17 17 15 14 15 17 18 20 22 23 23 23 23 24
20 19 19 18 18 18 17 17 17 16 15 15 14 13 14 15 14 14 15 13 12 13 14 16 18 19 20 22 22 22 22 20 18 17 17 17 18 19 21 23 23 22 21 21 21 22 24 26 27 28 28 29 29 29 28 30 30 26 24 25 28 30 31 30 30 28 22 17 12 10 17 23 21 19 20 20 19 20 21 22 24 25 26 26 26 26 26
20 19 19 18 18 17 17 17 17 17 16 15 14 13 14 15 15 14 14 13 11 14 17 16 16 17 19 21 23 23 23 23 22 21 21 21 19 19 21 22 22 21 20 20 21 21 23 24 25 27 27 25 23 20 18 16 15 10 8 11 15 20 26 28 28 28 26 22 17 17 25 30 25 22 24 25 26 26 24 22 22 22 24 24 25 26 26
20 19 19 18 18 17 17 17 17 17 17 16 14 13 13 14 14 14 14 12 10 14 18 17 15 15 17 20 21 21 22 23 22 22 21 21 21 21 21 21 22 21 20 19 20 20 20 21 21 21 20 17 16 18 20 17 13 9 6 11 13 13 17 23 27 27 25 24 18 12 13 16 15 14 14 17 19 19 18 18 19 20 22 23 25 26 26
20 20 19 18 18 17 17 17 16 17 17 16 15 13 13 15 15 14 13 12 11 14 18 17 15 16 17 18 20 22 22 22 21 20 19 18 19 19 19 19 20 20 19 19 19 19 18 16 14 13 12 12 14 17 19 18 15 12 11 14 15 12 12 14 23 27 22 17 14 10 9 11 11 10 10 12 13 14 14 15 16 19 20 20 22 24 24
21 20 19 19 18 17 17 17 17 16 17 17 16 15 14 15 15 14 14 13 11 13 17 18 18 19 19 19 19 20 21 20 19 20 19 18 18 17 16 18 20 20 21 20 18 16 14 12 12 13 14 14 14 15 16 17 17 16 15 15 15 13 12 11 16 25 24 19 15 13 14 12 11 10 11 12 14 15 12 8 8 13 15 15 18 19 21
21 20 20 19 19 18 17 17 17 17 17 16 17 16 15 15 15 15 15 14 13 14 18 19 18 18 20 19 18 18 19 19 20 21 20 19 19 18 16 16 18 18 19 18 14 11 11 11 11 14 16 16 13 12 14 13 12 14 17 18 18 16 13 10 10 15 19 19 17 17 18 17 16 14 11 8 8 8 6 5 7 10 12 14 16 18 20
21 21 21 20 20 19 18 18 18 18 17 17 17 17 16 15 15 15 15 15 14 14 16 18 17 17 18 18 17 17 18 19 20 21 20 18 18 19 16 15 16 16 16 17 14 11 10 11 10 11 14 14 12 12 13 14 14 15 17 18 18 18 15 10 8 9 11 12 14 15 14 13 11 10 9 9 8 5 5 8 11 14 16 18 20 22 24
22 22 22 21 21 20 19 18 18 17 17 16 16 16 16 15 15 15 15 15 14 13 14 16 17 17 17 16 16 16 17 17 19 20 20 19 19 19 16 15 16 16 15 17 16 12 10 10 9 10 11 11 13 15 16 18 18 16 15 15 15 17 16 10 7 9 10 10 10 7 4 4 5 8 11 12 11 11 14 17 19 21 23 25 26 28 29
22 22 22 22 21 21 20 18 17 16 16 16 15 15 14 14 14 14 14 14 13 12 13 14 14 14 14 13 14 15 16 16 17 16 15 14 15 15 14 13 15 15 14 15 15 13 12 12 12 12 12 13 15 16 16 19 21 19 18 18 16 15 12 9 9 9 8 7 7 4 2 7 12 15 17 17 18 21 23 23 23 25 26 28 29 30 30
22 22 22 22 21 20 19 18 17 16 15 15 15 14 14 13 13 13 13 13 12 11 11 12 13 13 14 14 14 15 14 12 13 12 10 10 9 10 11 11 11 13 15 16 16 15 16 16 16 17 18 19 20 20 20 22 24 23 23 21 17 14 12 13 16 16 14 15 16 14 15 17 18 20 22 23 24 25 24 25 26 26 28 29 30 30 30
22 22 22 22 21 20 19 18 18 17 15 15 14 14 13 13 12 12 12 12 11 10 10 10 11 12 14 14 14 14 13 11 9 8 7 9 10 10 11 11 11 12 14 16 16 16 19 20 19 21 22 21 23 25 26 27 28 28 27 25 23 22 22 23 25 25 25 27 26 21 20 21 22 25 27 26 25 24 24 25 27 27 28 29 29 30 31
23 23 22 22 21 20 19 18 18 17 16 15 14 14 14 13 12 13 13 12 12 11 10 9 9 10 11 10 11 13 14 12 10 8 8 10 12 12 12 13 15 16 17 17 18 19 20 21 21 23 25 24 24 25 26 27 29 28 27 26 24 23 24 26 28 27 29 31 29 25 24 26 27 28 26 24 23 23 23 25 26 27 28 29 30 31 30
24 23 23 22 21 20 19 18 18 17 17 16 15 15 14 14 13 13 12 12 12 10 8 7 8 9 8 7 10 14 14 12 11 11 11 11 13 14 15 15 17 18 17 17 19 20 21 21 21 23 26 27 27 26 26 26 26 25 24 23 22 20 22 25 27 28 29 31 31 28 28 28 27 26 25 25 25 26 26 26 27 28 30 30 31 32 31
25 24 24 23 22 21 20 19 18 18 17 17 16 16 15 15 15 14 13 12 10 9 7 6 6 7 8 9 13 16 15 14 14 14 14 15 16 17 16 15 16 18 18 18 18 18 19 19 19 20 23 24 25 26 27 28 27 27 28 26 23 23 26 27 27 28 31 31 29 27 27 27 26 25 26 27 28 29 29 28 28 29 29 29 30 31 31
25 25 25 24 23 22 21 20 19 18 18 18 17 16 16 16 15 14 13 11 10 9 7 5 5 7 9 11 13 14 14 13 13 12 12 13 13 14 14 13 15 17 18 19 19 19 19 20 20 20 22 22 24 26 27 28 27 28 29 27 23 24 26 25 24 27 30 29 25 24 27 30 28 27 29 29 30 31 30 29 29 29 29 29 30 30 30
26 26 26 25 24 23 22 21 20 19 19 18 17 17 16 16 15 14 13 12 12 10 8 7 7 7 8 7 8 7 5 4 4 4 5 6 7 9 11 13 15 17 18 19 20 21 22 23 23 23 23 23 25 26 26 26 27 27 26 23 21 22 23 22 23 26 29 28 25 25 28 31 30 30 31 31 31 32 31 30 30 29 28 28 28 28 28
25 26 27 26 25 24 23 22 21 20 19 19 18 17 16 16 16 14 13 13 13 11 11 10 9 6 4 4 3 2 2 3 3 2 4 7 9 11 13 14 17 19 21 22 22 22 23 23 23 22 21 21 23 26 26 26 27 27 24 22 21 21 21 21 22 25 26 26 26 26 28 30 31 31 32 32 32 32 32 31 30 29 28 26 25 26 27
25 26 27 27 26 25 24 24 22 21 20 19 18 16 14 14 15 15 15 15 15 14 14 13 9 6 4 2 1 3 4 4 3 3 7 10 11 12 14 15 16 18 19 20 21 22 22 23 22 21 19 18 21 25 27 27 29 28 23 21 21 21 20 21 22 24 26 27 27 28 30 31 32 32 32 31 32 32 33 32 30 28 26 25 24 24 25
24 26 27 27 27 27 26 25 23 22 20 18 15 14 13 13 15 17 18 18 17 15 14 12 9 6 3 2 2 4 5 4 3 4 7 9 9 10 12 13 14 15 16 17 19 20 20 20 20 19 18 17 19 24 25 27 29 28 24 21 21 21 21 22 23 24 26 27 27 28 30 30 29 30 30 30 31 32 33 31 28 26 25 25 24 23 22
24 26 27 28 28 27 27 25 23 21 19 16 14 13 14 14 15 16 17 17 16 14 13 12 9 6 3 3 4 5 4 4 5 5 6 8 9 10 12 12 14 15 15 17 19 20 19 19 18 17 16 16 19 23 24 26 28 27 24 22 22 22 22 23 23 24 24 23 24 27 29 27 26 27 28 29 28 28 27 26 24 24 25 25 24 22 21
24 25 26 28 28 28 27 25 23 20 18 15 14 15 16 17 16 15 13 12 12 12 12 11 10 8 7 6 6 5 4 7 9 8 8 10 11 13 13 13 14 15 15 16 19 19 19 18 17 17 17 17 18 22 25 26 25 24 23 23 23 23 24 24 24 24 24 23 24 28 29 28 27 26 26 25 23 22 22 23 23 23 24 24 23 20 18
23 24 26 27 28 28 27 25 22 19 17 15 15 17 18 18 16 14 11 10 9 10 10 10 10 10 9 9 8 6 6 10 12 12 12 12 13 15 15 15 14 15 15 15 17 18 18 18 18 19 19 18 19 22 25 25 24 24 25 25 26 25 26 26 25 24 24 24 25 27 28 28 27 26 24 22 21 21 22 22 22 21 21 21 19 16 14
22 24 25 26 27 27 26 25 23 21 19 16 16 17 17 16 15 12 10 9 9 9 10 11 11 11 11 11 10 7 7 11 14 15 16 16 14 14 16 16 14 14 14 14 16 17 17 17 19 21 20 19 19 22 25 26 26 27 28 28 26 26 26 25 24 22 22 22 23 24 25 26 25 24 22 20 19 19 19 19 19 18 17 16 14 13 12
21 23 24 25 26 26 25 24 23 22 21 19 18 17 16 15 13 11 10 9 8 8 9 10 10 10 11 12 10 9 11 16 18 18 18 17 16 14 15 15 14 13 13 14 16 16 15 16 19 19 18 19 19 21 23 25 27 29 28 24 21 22 25 26 25 24 21 21 21 22 21 20 19 18 17 15 15 16 16 16 15 15 14 12 11 12 13
21 23 23 25 26 26 24 23 23 22 22 21 20 17 15 13 11 9 8 8 8 8 8 9 9 9 11 11 12 15 17 20 20 20 19 18 17 15 14 13 14 15 16 17 16 14 14 14 15 16 17 17 17 19 21 23 24 25 23 17 15 17 17 16 17 17 15 14 15 15 15 14 14 13 13 13 14 14 14 14 13 12 12 11 11 12 11
21 23 24 24 25 25 24 23 22 21 20 20 18 15 13 10 8 6 5 6 8 9 9 8 9 10 11 13 16 19 20 20 21 21 20 19 18 15 13 14 15 17 19 18 14 11 12 13 14 16 18 15 15 19 23 21 19 17 16 13 13 15 13 11 9 9 8 9 10 11 11 12 12 12 12 13 13 13 13 12 11 10 10 9 9 9 8
22 23 23 24 24 24 23 22 20 19 17 16 13 11 10 8 6 4 3 6 9 10 9 9 11 12 13 16 18 20 21 20 20 20 20 18 16 14 14 15 16 18 19 16 13 12 14 16 16 18 18 15 17 22 23 18 13 12 12 11 12 11 10 9 9 8 8 9 9 9 9 10 10 11 12 11 11 10 10 9 10 10 10 9 7 6 7
21 22 23 23 24 23 22 20 19 17 15 12 10 8 8 7 6 4 5 7 10 9 8 10 12 13 13 16 20 21 21 20 20 20 19 16 14 14 15 16 17 18 17 14 13 14 18 18 17 16 18 20 24 25 21 14 11 9 8 8 8 8 7 8 9 9 9 10 10 9 9 8 8 9 8 7 6 6 7 7 6 6 7 8 7 6 6
20 21 22 22 23 22 20 19 17 14 12 11 9 8 8 7 5 5 6 7 7 7 8 10 12 13 15 18 21 21 20 19 20 20 17 14 14 15 16 16 15 14 13 12 14 17 19 17 15 16 22 26 27 22 16 11 9 6 4 5 7 7 7 8 9 10 11 11 10 10 9 7 5 4 4 3 2 2 2 2 1 3 6 8 7 6 7
22 22 22 22 22 20 17 15 13 10 8 8 6 7 8 7 5 5 7 6 5 7 10 13 15 17 19 21 21 20 20 20 19 16 15 14 15 15 15 14 13 11 11 13 15 17 16 14 15 22 28 27 21 16 11 8 5 2 2 4 6 7 7 8 9 8 9 10 8 6 5 6 6 7 6 5 4 2 1 1 1 2 3 4 4 5 8
23 23 23 22 21 19 16 12 10 8 7 7 5 6 7 6 6 7 9 9 8 9 12 15 18 20 21 20 19 18 18 18 14 12 13 15 14 13 14 14 12 12 14 15 15 14 13 13 19 27 29 21 14 11 8 4 2 3 3 3 5 6 6 6 5 7 9 11 12 11 9 7 6 5 4 5 5 4 3 3 4 3 2 2 3 7 11
22 23 22 21 20 18 14 10 8 8 8 6 4 5 6 8 10 11 11 11 10 11 14 18 21 22 21 21 20 19 17 15 13 12 13 13 12 12 13 13 14 15 15 15 14 13 12 15 23 28 23 14 10 10 5 3 6 7 7 7 7 6 6 7 10 12 13 13 13 13 10 7 5 5 6 6 6 5 5 6 6 6 6 5 1 7 12
21 21 21 20 19 16 12 9 9 8 6 4 4 7 10 13 16 16 13 12 13 15 17 20 22 22 22 23 21 18 15 14 13 12 12 12 13 13 12 13 15 16 14 13 13 13 13 18 25 26 18 9 9 8 4 6 8 9 9 9 9 9 10 11 13 15 16 15 15 15 12 9 8 9 10 9 7 6 6 7 7 7 6 3 3 8 11
21 21 21 20 17 14 12 9 7 6 5 4 5 6 9 13 16 15 14 15 17 18 19 22 23 23 23 22 20 17 14 12 12 11 10 12 13 13 12 13 14 12 11 12 13 15 17 21 25 24 17 9 8 7 5 8 10 11 10 11 12 13 14 14 13 13 14 15 16 16 15 14 12 11 11 10 9 9 11 11 9 7 5 5 7 9 9
21 21 21 19 16 15 14 11 8 8 9 9 8 10 11 13 15 14 13 15 16 18 21 22 22 21 21 21 18 15 12 11 11 10 9 10 12 13 12 12 11 10 10 12 13 16 20 22 23 22 18 9 6 6 6 8 10 10 11 12 13 14 15 16 16 16 17 16 16 16 17 17 17 16 15 15 14 14 14 13 12 11 11 12 13 13 13
21 21 20 18 17 16 16 14 14 14 13 11 10 10 12 13 13 13 13 14 15 16 18 18 18 20 21 19 16 13 11 10 11 9 7 8 11 11 10 10 11 11 12 13 14 19 23 21 21 23 19 6 7 8 6 8 10 10 12 13 13 13 14 15 17 19 20 19 19 19 18 17 16 16 16 16 16 15 14 13 13 13 13 13 13 13 13
21 20 19 18 18 18 17 18 18 17 13 11 11 11 11 11 10 12 14 15 15 15 15 16 18 21 21 18 15 13 11 9 9 9 8 9 10 10 12 14 15 15 15 16 18 22 23 20 20 22 17 3 9 10 8 9 10 11 12 13 13 13 14 14 16 18 19 19 19 20 20 19 19 17 15 14 14 13 12 12 10 9 8 8 9 9 10
21 20 18 18 19 20 20 20 21 19 15 11 11 11 12 12 11 12 16 16 15 16 17 19 19 20 19 17 15 13 10 8 9 11 12 12 11 11 13 16 17 17 19 21 22 23 22 20 20 21 13 6 13 13 11 11 11 11 12 13 14 15 15 15 17 18 18 17 18 18 19 19 19 19 18 17 16 14 12 11 9 8 8 7 7 8 9
20 20 19 19 21 22 22 22 21 19 15 11 9 9 11 12 11 10 13 15 16 18 19 19 19 18 18 16 14 13 11 11 13 13 13 13 11 12 14 17 18 19 21 22 22 22 22 20 20 18 9 11 18 16 13 13 13 12 12 13 13 14 15 15 16 17 17 17 17 16 16 16 17 17 17 17 16 14 13 12 11 10 9 8 8 8 8
20 21 20 20 21 23 24 23 21 19 16 13 9 8 11 13 13 12 12 15 17 18 19 19 19 18 18 17 15 14 14 15 15 14 13 12 12 13 15 18 19 20 21 21 21 22 22 20 18 15 7 14 21 18 15 15 14 13 13 13 13 12 12 12 12 13 14 16 17 17 16 15 15 15 15 14 13 12 11 11 11 10 9 8 8 7 7
Wind_Direction
319 317 315 315 313 312 310 307 306 303 298 297 297 297 300 301 282 264 280 299 298 277 271 252 241 264 266 254 254 266 275 277 281 289 293 294 288 273 264 263 264 267 269 266 268 275 280 277 275 276 279 284 296 308 307 302 289 285 292 292 289 291 282 270 275 273 265 262 261 261 261 262 265 271 275 270 257 291 316 298 285 290 266 246 213 237 260
318 318 317 316 315 315 314 313 312 313 311 305 300 300 301 299 279 265 280 298 297 285 276 251 248 264 265 260 258 264 279 285 286 293 294 285 280 272 261 260 267 271 272 271 270 272 278 276 268 268 272 271 270 280 292 298 291 285 290 288 284 283 279 279 293 298 288 283 276 269 264 263 263 264 264 256 249 295 317 316 291 287 264 237 190 238 257
317 317 317 317 316 316 316 315 314 316 318 314 310 309 305 298 290 280 281 285 282 283 277 262 266 277 278 278 278 278 288 296 298 299 294 277 272 274 270 268 270 274 275 273 268 264 268 276 276 273 272 268 265 269 276 281 282 288 294 292 289 280 270 270 273 264 263 270 272 270 267 261 258 255 251 250 266 293 310 330 316 275 250 244 246 266 268
317 317 317 317 317 316 315 314 313 315 316 314 312 312 308 301 297 292 278 269 269 269 265 262 269 280 283 285 288 291 295 297 299 299 292 266 255 263 275 279 276 274 273 272 267 257 254 263 274 278 275 270 267 266 267 273 280 283 275 277 283 280 275 273 268 260 260 266 268 269 269 266 262 258 253 256 276 291 299 305 288 270 270 274 272 281 283
317 317 317 316 317 316 315 314 313 313 313 313 311 310 308 304 299 296 288 276 265 254 253 257 262 272 284 289 290 294 297 295 294 294 287 270 257 257 266 270 268 271 270 266 264 258 253 256 266 274 273 267 264 263 263 270 279 273 249 250 271 283 282 276 269 266 269 277 281 279 273 270 270 269 264 264 275 286 289 288 283 277 282 281 276 283 288
314 313 314 314 313 313 312 311 310 310 310 309 308 305 302 299 296 295 293 286 278 268 262 262 264 271 283 289 292 299 301 301 302 295 280 270 265 260 251 237 230 253 266 264 263 265 265 266 268 271 271 266 264 263 259 264 274 273 259 248 252 270 275 270 269 272 272 277 283 280 273 270 272 274 273 272 277 282 283 283 282 279 273 271 274 282 288
312 311 310 310 310 309 308 307 306 305 305 303 301 298 294 291 289 289 288 286 284 282 279 276 275 278 283 284 292 305 301 295 288 276 265 263 264 261 255 244 231 241 259 268 275 280 279 276 271 270 272 271 272 273 264 257 264 270 267 256 251 261 270 271 276 281 278 274 272 270 270 274 276 275 274 274 275 276 278 280 278 274 270 268 272 280 287
314 313 311 310 310 308 306 305 304 303 302 301 298 294 291 287 282 280 281 281 279 278 278 279 279 276 273 268 256 261 279 280 267 263 264 262 259 258 261 260 253 255 264 270 277 284 286 285 280 277 277 278 280 283 278 264 259 264 271 268 259 262 270 273 278 282 277 268 263 266 273 275 275 273 268 266 270 270 269 271 274 275 274 273 273 276 278
319 317 316 314 313 311 309 307 305 303 302 301 297 294 289 285 280 276 274 272 271 271 271 273 271 258 251 249 241 239 254 264 256 254 266 271 267 266 270 272 273 275 276 273 275 281 284 284 282 280 281 281 280 280 280 278 274 271 272 275 273 268 267 268 275 280 278 273 268 268 271 271 268 265 260 258 263 267 267 268 274 278 277 276 275 273 272
323 320 319 317 316 314 312 310 308 306 305 302 299 296 292 289 285 280 277 273 272 271 269 269 264 248 238 236 234 238 254 268 262 253 256 264 266 269 273 277 280 281 278 274 274 277 278 280 280 281 281 282 281 278 276 277 278 276 275 276 277 275 269 266 271 278 278 275 264 258 263 268 266 264 264 261 256 258 261 264 271 275 275 276 277 275 274
326 323 321 319 318 317 315 312 309 307 304 301 296 292 288 285 284 282 281 280 278 278 275 268 260 249 242 240 235 237 249 266 269 264 259 256 258 266 273 276 281 284 283 279 275 273 273 275 278 282 284 284 283 282 279 277 276 277 279 277 276 275 271 265 263 267 270 259 243 251 261 259 257 262 265 254 237 238 249 261 271 275 277 281 283 282 280
332 329 327 323 321 319 318 316 313 310 307 303 297 292 285 282 281 282 283 281 279 278 272 262 256 251 249 248 245 245 250 258 264 266 266 265 266 269 271 275 282 288 289 285 280 276 275 274 274 277 279 281 281 279 278 278 277 278 279 277 275 272 269 264 258 257 262 258 245 250 265 255 252 259 258 246 237 243 255 269 275 276 278 281 282 283 283
336 334 332 328 325 322 320 317 315 312 310 308 304 300 295 290 287 287 286 284 282 277 265 255 255 257 257 257 257 258 261 263 264 264 267 270 272 272 272 276 282 285 283 282 281 280 282 280 279 279 280 283 284 280 275 274 275 277 279 278 277 272 266 261 256 253 255 252 231 229 258 265 262 257 252 247 247 253 261 269 272 271 273 276 277 279 282
338 336 334 332 328 326 323 319 316 313 310 308 305 303 300 297 295 291 288 288 286 278 270 263 261 263 265 265 266 268 270 270 268 266 267 267 268 272 273 274 277 278 277 278 280 284 288 289 290 291 293 297 298 293 287 279 267 266 290 303 299 284 269 259 252 249 248 245 239 248 265 272 273 267 263 261 260 264 267 267 266 268 270 273 276 279 282
341 339 337 334 332 329 327 323 320 316 313 311 309 307 303 298 295 292 288 288 284 278 278 277 271 267 268 272 276 279 280 280 278 275 272 269 268 269 268 267 268 269 269 275 282 284 285 288 294 297 302 314 317 307 305 300 271 243 281 315 315 305 287 268 253 247 248 247 247 257 267 271 274 270 262 258 256 256 257 257 259 263 268 271 275 278 280
343 343 340 339 336 333 330 326 322 319 316 314 313 310 302 296 294 291 287 284 282 280 281 282 280 276 276 278 283 286 286 288 289 286 281 276 270 264 260 260 263 262 263 275 287 288 285 286 290 293 298 313 315 305 305 308 294 272 281 296 293 304 324 293 255 246 247 244 239 242 248 259 268 256 232 230 231 230 240 254 258 256 258 265 270 274 278
345 344 342 341 339 337 334 330 326 322 318 316 315 311 305 300 297 293 289 286 283 282 280 278 278 280 280 278 280 285 288 291 293 292 291 286 278 268 255 253 258 262 269 279 285 285 286 284 279 280 287 297 302 296 295 305 310 305 297 289 286 304 339 325 265 250 246 242 241 248 251 255 264 254 228 216 213 215 227 247 245 243 251 262 266 272 279
345 343 342 341 339 337 336 332 328 326 323 319 316 312 309 306 301 297 293 289 288 286 282 279 279 279 278 279 281 283 286 288 288 289 291 289 285 283 276 268 266 265 270 279 280 273 276 279 277 279 284 290 293 290 291 300 314 318 309 300 302 315 330 329 298 269 256 252 254 260 260 260 262 258 249 240 232 228 239 253 251 256 268 275 275 279 284
344 342 341 341 339 337 336 333 329 327 324 321 318 313 311 308 303 299 294 291 291 288 281 280 282 281 279 282 285 284 285 289 291 292 293 291 287 285 284 281 276 271 271 277 278 275 277 278 274 274 278 282 280 274 279 287 292 302 306 302 308 323 327 322 318 310 289 271 264 264 265 262 258 260 279 303 310 311 298 284 280 284 290 292 292 293 295
344 343 342 341 340 339 338 336 332 328 325 323 319 315 312 308 303 298 295 293 292 286 277 275 279 280 280 283 284 283 284 286 288 292 298 298 293 289 283 271 266 269 270 269 268 272 279 278 272 270 270 271 268 265 269 276 277 284 297 300 304 314 319 319 320 319 307 283 268 263 263 267 282 301 312 314 309 302 300 298 296 295 297 297 297 298 298
344 344 343 343 343 342 342 341 338 335 332 329 325 321 317 312 307 303 301 300 299 292 284 281 281 279 279 280 279 278 280 284 287 294 301 303 303 306 301 283 271 271 270 268 267 268 273 276 275 272 266 264 265 267 272 276 272 267 273 287 296 296 297 307 313 313 307 275 247 224 262 294 303 309 310 305 299 296 299 300 298 297 297 298 298 299 300
344 344 345 345 345 345 345 345 343 342 341 337 332 329 325 320 316 313 310 308 307 300 291 287 284 279 277 277 275 273 276 284 290 295 301 306 315 326 324 311 293 279 272 272 273 269 267 270 274 273 270 270 271 271 273 279 280 274 271 279 287 284 282 291 293 290 287 277 272 277 284 285 290 298 301 300 298 299 300 299 298 299 299 299 300 301 301
346 346 346 346 347 348 348 347 346 345 345 341 336 333 331 328 323 319 317 315 313 311 303 289 277 273 277 281 282 282 284 286 286 288 293 298 305 313 318 319 311 294 282 278 278 277 274 273 275 276 275 274 275 275 274 276 279 281 280 279 278 276 278 281 281 281 281 280 281 284 283 278 282 293 299 302 301 300 299 297 298 300 300 300 301 301 302
349 349 348 348 349 349 349 348 346 344 344 342 338 334 332 330 326 324 323 320 317 316 308 290 278 280 286 287 283 284 287 286 285 289 292 294 297 299 303 310 310 304 296 288 286 289 288 284 280 278 276 275 275 277 279 279 279 282 284 282 279 277 278 276 274 276 279 278 278 282 284 285 290 295 299 301 299 295 293 294 295 297 298 299 299 299 300
353 351 351 350 350 350 349 347 345 344 343 341 338 336 333 331 329 329 327 321 319 320 312 300 293 290 291 285 276 279 285 287 287 286 280 280 286 290 295 304 310 313 312 304 297 297 296 293 288 281 279 277 276 276 279 282 282 283 282 281 281 282 281 278 277 278 278 279 281 286 289 290 293 296 297 297 295 292 291 292 294 296 297 297 297 296 294
356 354 353 352 351 350 349 346 345 343 341 339 337 335 334 332 331 331 329 326 327 324 316 313 305 289 280 274 271 277 287 293 293 290 284 280 282 287 292 301 310 315 319 316 310 304 298 294 292 288 286 284 281 277 277 278 281 281 280 281 285 285 282 283 285 285 283 283 286 291 291 286 284 288 290 290 291 293 294 294 295 296 297 297 296 295 293
357 356 354 352 351 350 348 346 344 342 340 338 337 335 334 332 330 330 330 330 328 318 306 309 308 290 280 274 272 277 287 291 289 287 285 282 281 283 292 302 306 307 310 309 307 304 300 297 297 297 296 294 288 282 279 280 281 280 280 284 287 284 283 286 288 287 286 286 288 293 293 288 285 288 291 291 293 295 296 297 298 297 295 294 294 295 295
357 356 355 353 351 350 348 345 344 342 340 337 336 336 335 331 329 330 330 325 320 310 302 313 319 302 289 286 285 285 280 268 264 260 260 267 274 282 294 301 297 295 300 302 301 300 300 299 299 299 297 295 292 289 287 286 284 282 285 291 291 284 283 286 286 284 284 285 284 286 288 287 286 288 290 291 293 294 295 296 296 295 295 294 292 293 294
356 355 354 353 350 349 348 346 344 343 341 337 335 336 336 331 330 332 330 326 323 318 319 334 344 335 327 327 304 257 192 189 203 247 282 294 299 298 300 299 295 294 297 298 297 297 298 298 298 298 297 296 294 291 291 290 288 287 291 294 292 288 287 288 287 285 283 282 281 282 283 284 285 287 288 289 291 292 291 291 291 292 294 294 290 289 290
354 354 353 352 350 348 346 346 345 343 341 339 337 339 341 336 331 331 331 332 334 333 336 350 6 8 5 10 270 243 249 249 254 305 311 305 300 295 293 294 295 296 296 295 293 293 294 295 298 298 297 295 291 288 290 293 293 293 296 298 297 297 292 285 281 280 278 278 279 280 281 282 285 289 291 292 292 291 289 287 286 287 288 290 288 285 285
351 352 351 351 349 347 345 345 345 345 344 343 342 346 350 344 335 334 334 335 338 341 344 355 11 20 22 19 315 288 285 288 304 324 316 307 300 295 293 294 297 297 296 295 295 293 294 298 302 301 301 298 291 289 292 294 294 296 303 306 302 297 287 277 274 274 276 279 281 281 280 282 287 291 292 292 291 289 287 285 283 282 282 283 283 281 279
347 349 349 349 348 346 344 345 346 347 345 345 345 347 347 342 337 336 336 334 336 343 348 354 8 23 25 350 322 306 314 348 349 331 320 318 314 308 305 304 305 305 303 301 302 301 301 304 306 304 304 303 297 294 294 292 293 299 307 305 297 291 285 281 279 278 278 280 280 279 278 280 284 287 288 290 290 286 282 280 279 277 277 277 277 276 275
344 345 345 346 345 344 343 344 347 349 346 342 340 339 339 337 336 338 339 335 335 344 349 352 360 7 1 348 331 308 324 351 346 330 324 323 315 312 314 312 307 307 307 305 305 306 308 309 308 305 303 302 298 296 294 293 297 305 306 301 298 296 291 285 281 280 279 278 276 277 280 284 286 285 286 288 287 281 276 277 277 275 275 275 273 271 269
340 341 342 343 343 342 341 342 344 346 343 338 334 334 334 333 333 338 345 344 340 345 349 347 350 355 353 349 347 341 342 348 342 331 328 328 320 318 319 316 311 311 311 308 305 305 307 308 306 303 304 306 300 294 293 298 304 305 302 301 301 298 289 282 280 281 281 279 277 278 282 285 286 285 283 283 283 280 278 278 278 277 276 274 271 269 268
338 338 338 340 340 339 339 339 339 338 336 332 330 330 329 331 335 340 347 347 343 345 347 346 349 353 348 348 357 2 352 345 343 337 332 330 328 323 319 316 317 317 313 309 307 308 309 309 306 304 306 307 300 295 297 302 304 302 300 300 299 294 288 285 282 281 281 280 279 279 280 281 282 283 282 282 283 282 279 277 276 275 275 274 273 272 270
335 336 336 338 339 338 337 335 334 332 329 329 331 332 333 337 341 343 345 348 348 349 351 354 356 355 349 350 356 355 344 341 341 340 335 332 332 329 322 320 324 325 319 315 315 315 312 308 305 305 309 308 303 300 301 301 300 301 303 304 302 297 291 286 284 284 283 279 276 277 279 280 282 283 282 281 282 279 276 273 273 273 276 277 275 274 271
332 334 335 337 337 336 335 332 330 330 328 329 332 336 338 342 344 341 344 355 359 356 356 2 2 355 350 349 345 342 341 339 336 336 338 339 339 337 332 329 331 329 325 325 325 320 315 311 309 311 317 317 313 310 307 304 304 308 311 315 320 321 314 301 292 291 289 282 280 282 284 285 286 285 282 279 278 275 272 273 274 275 277 275 272 276 271
331 333 335 335 335 335 334 331 330 331 330 329 332 337 341 347 347 334 334 359 4 356 352 357 356 348 342 340 339 339 339 336 333 334 338 339 340 338 335 334 332 327 326 332 337 329 322 323 321 321 322 320 318 320 319 315 313 316 318 318 323 333 343 350 343 327 311 301 297 294 290 288 288 287 285 281 277 274 273 276 277 275 274 269 262 259 250
333 333 333 333 333 335 334 333 334 334 332 333 337 342 347 354 353 336 339 2 0 352 345 346 345 339 332 332 335 336 334 331 329 330 332 333 335 335 331 331 331 326 326 336 346 340 332 331 327 326 327 326 325 328 328 321 313 316 319 318 321 330 340 346 344 335 322 313 307 298 291 286 284 283 284 284 284 284 282 277 274 271 267 259 243 228 228
331 331 332 333 335 337 336 336 338 338 338 342 349 353 355 359 359 355 360 359 350 342 338 337 334 328 322 323 327 330 331 329 324 324 329 334 336 332 329 331 331 326 325 336 345 340 334 332 331 333 336 332 330 332 330 321 315 319 315 313 329 344 346 343 341 340 337 333 327 320 311 298 285 284 285 282 286 299 298 282 267 249 230 219 207 200 208
332 333 334 335 337 338 338 337 337 338 341 346 355 4 8 9 9 360 354 348 336 327 324 322 318 315 315 320 324 327 329 325 320 321 330 339 336 329 328 330 329 321 320 333 340 336 332 334 340 344 340 335 335 337 335 325 323 327 318 321 342 353 353 349 348 347 347 344 334 325 322 319 315 328 345 344 348 7 346 306 255 157 163 170 170 175 190
335 335 336 338 340 342 340 336 332 335 342 349 3 18 15 10 9 357 339 319 306 311 313 313 318 322 324 324 325 325 324 323 321 323 329 333 331 327 326 329 327 318 319 330 335 332 330 336 346 346 342 339 341 346 344 335 330 317 299 334 352 357 355 353 352 355 4 7 3 5 21 30 36 42 38 28 36 82 135 181 159 138 145 144 142 172 193
334 334 337 341 342 341 340 337 335 340 347 349 5 24 18 10 6 349 321 299 294 306 310 315 324 330 330 327 325 324 323 324 324 324 326 328 329 326 325 326 323 319 321 327 331 331 332 341 348 346 343 343 350 358 358 7 81 120 110 51 23 13 11 16 31 44 45 43 49 63 73 65 49 44 38 35 54 83 90 70 65 63 49 61 139 171 173
333 334 338 342 341 339 341 344 342 339 336 333 344 3 360 350 343 331 311 294 296 305 311 318 325 328 327 327 327 325 325 326 325 323 325 327 326 322 319 318 318 318 319 321 325 329 335 346 349 346 342 345 2 11 23 99 108 98 87 69 52 46 54 68 73 68 61 57 60 66 72 71 64 61 58 57 69 82 75 58 60 60 46 33 129 164 153
333 334 337 339 340 341 342 339 334 330 325 324 338 337 329 328 331 326 312 305 310 311 311 315 318 319 321 325 326 325 324 324 322 320 321 319 317 315 311 310 313 316 316 319 327 334 338 344 347 345 341 355 28 40 73 101 88 83 81 72 65 68 71 74 75 68 60 57 58 60 62 68 72 71 69 68 69 73 72 70 70 63 49 41 150 149 137
333 335 337 340 341 340 338 334 327 314 292 278 281 284 293 313 329 328 312 305 306 304 301 303 306 310 318 324 325 324 325 320 314 315 318 313 310 313 314 312 312 314 314 318 327 334 335 340 344 343 341 1 48 71 94 92 85 86 86 79 75 75 76 79 84 82 75 72 71 71 73 80 86 88 92 96 98 98 98 99 100 97 92 107 121 114 98
333 336 338 338 337 337 338 332 314 298 293 287 270 255 263 290 312 316 301 290 290 292 293 295 299 309 319 323 321 321 324 317 309 311 314 308 306 311 315 313 310 313 316 319 325 331 335 339 342 340 340 3 79 106 108 102 97 93 89 86 84 82 81 82 85 85 84 86 87 84 83 85 87 90 94 97 99 100 102 101 98 90 84 82 80 73 65
332 335 336 335 333 334 335 326 311 306 304 293 273 264 269 282 296 305 304 297 295 296 298 299 303 312 319 319 317 318 322 318 313 314 316 311 309 312 312 306 302 304 310 315 320 327 332 336 338 336 337 1 129 138 129 118 112 102 94 91 88 86 85 85 84 83 83 85 87 88 88 87 88 89 92 95 97 98 94 87 80 75 71 68 66 63 60
328 331 333 332 330 331 330 321 312 311 307 283 261 255 257 265 283 309 317 311 305 306 309 310 312 316 317 315 314 317 321 318 312 312 313 311 306 301 300 300 300 304 311 316 319 323 327 331 334 333 330 286 167 162 151 136 123 109 102 96 90 88 89 87 85 86 86 84 85 87 87 86 86 85 86 91 99 102 100 94 90 88 84 78 69 63 58
322 327 331 330 328 329 327 319 313 313 310 292 264 251 250 257 279 314 324 317 310 311 314 313 313 314 313 310 309 313 315 312 306 304 304 305 303 299 298 299 300 305 311 314 316 319 322 325 331 333 322 217 180 170 159 147 132 116 109 103 96 94 96 92 88 87 86 84 84 85 85 85 86 87 87 89 91 94 97 100 97 92 89 84 73 63 55
318 322 326 328 327 326 324 320 317 315 309 292 262 248 254 260 270 297 315 313 308 309 311 310 310 310 308 304 303 305 307 307 306 301 299 301 303 298 295 297 300 307 311 311 312 316 318 320 326 329 307 202 184 175 164 154 142 128 120 114 105 102 103 99 91 84 80 78 79 81 82 84 85 84 83 83 84 85 90 94 91 85 79 73 66 57 46
315 317 320 324 327 326 323 322 321 318 310 298 278 265 271 274 272 274 287 297 300 302 304 305 306 306 302 298 299 302 301 301 299 296 295 299 301 299 298 300 303 308 312 314 315 317 317 315 319 322 285 195 183 177 167 159 149 139 132 126 117 112 112 108 99 91 84 81 79 79 81 83 82 79 77 76 77 78 79 79 76 71 64 55 49 40 29
Height
3107 3106 3105 3104 3103 3102 3100 3099 3099 3099 3099 3098 3097 3097 3097 3097 3096 3095 3094 3094 3094 3094 3093 3093 3093 3092 3091 3092 3092 3091 3091 3091 3090 3089 3089 3089 3089 3089 3089 3088 3088 3087 3086 3085 3085 3085 3083 3083 3083 3083 3083 3083 3083 3081 3080 3080 3080 3079 3078 3078 3077 3077 3076 3076 3075 3076 3076 3077 3078 3079 3080 3081 3082 3081 3081 3082 3083 3083 3083 3083 3082 3082 3080 3079 3081 3077 3073
3106 3105 3104 3103 3101 3100 3099 3097 3097 3097 3097 3096 3096 3096 3095 3095 3095 3094 3093 3093 3092 3092 3091 3091 3090 3090 3090 3090 3090 3090 3090 3089 3088 3088 3088 3088 3087 3086 3087 3086 3086 3085 3084 3084 3084 3083 3082 3081 3081 3081 3080 3080 3080 3079 3078 3078 3078 3078 3078 3077 3076 3076 3075 3074 3074 3074 3074 3075 3076 3077 3078 3079 3078 3078 3078 3079 3080 3080 3081 3081 3081 3080 3077 3077 3078 3074 3071
3104 3103 3102 3101 3100 3099 3097 3096 3095 3095 3095 3094 3094 3094 3093 3093 3093 3093 3092 3092 3091 3090 3090 3089 3089 3088 3088 3088 3088 3087 3087 3087 3086 3086 3086 3086 3085 3084 3084 3083 3083 3083 3082 3081 3081 3082 3081 3079 3078 3078 3078 3078 3078 3077 3077 3076 3076 3076 3076 3076 3075 3074 3074 3073 3074 3074 3074 3075 3076 3076 3076 3076 3075 3074 3075 3076 3077 3077 3078 3079 3079 3078 3076 3075 3075 3071 3069
3102 3101 3100 3099 3098 3097 3096 3094 3093 3093 3093 3092 3092 3092 3091 3091 3091 3091 3091 3091 3090 3089 3088 3088 3087 3086 3086 3086 3085 3085 3084 3084 3084 3083 3083 3083 3082 3082 3081 3081 3081 3080 3079 3079 3079 3078 3078 3077 3076 3075 3075 3075 3075 3075 3075 3075 3074 3074 3074 3074 3073 3072 3071 3071 3071 3071 3071 3073 3074 3074 3074 3074 3072 3072 3072 3074 3074 3074 3076 3077 3076 3076 3075 3073 3072 3071 3069
3100 3099 3098 3097 3096 3095 3094 3093 3092 3091 3091 3090 3090 3090 3089 3089 3089 3089 3089 3089 3089 3088 3087 3086 3086 3085 3084 3083 3083 3083 3082 3081 3081 3081 3081 3080 3079 3079 3079 3078 3077 3077 3076 3076 3075 3074 3074 3074 3074 3073 3072 3072 3072 3073 3073 3073 3072 3072 3072 3072 3071 3070 3069 3069 3068 3068 3069 3070 3071 3071 3071 3070 3069 3069 3069 3070 3071 3071 3072 3073 3072 3073 3073 3069 3068 3070 3068
3098 3097 3096 3095 3094 3093 3092 3091 3090 3089 3089 3088 3088 3087 3087 3086 3086 3086 3087 3087 3086 3086 3086 3085 3084 3083 3082 3081 3080 3080 3080 3079 3079 3079 3078 3077 3076 3077 3076 3075 3074 3074 3073 3073 3073 3071 3072 3072 3072 3071 3070 3070 3069 3070 3072 3071 3069 3070 3070 3070 3069 3068 3067 3067 3066 3066 3067 3068 3068 3068 3068 3067 3066 3065 3065 3066 3068 3068 3068 3068 3069 3070 3069 3066 3065 3067 3066
3096 3094 3093 3092 3091 3090 3089 3088 3087 3087 3086 3086 3086 3085 3085 3084 3084 3084 3084 3084 3083 3082 3082 3081 3081 3081 3079 3078 3079 3078 3078 3077 3077 3076 3075 3075 3074 3074 3073 3073 3073 3073 3072 3071 3071 3070 3070 3070 3070 3069 3068 3068 3067 3068 3069 3069 3068 3068 3068 3068 3068 3066 3065 3066 3065 3064 3064 3065 3065 3065 3065 3064 3062 3062 3062 3063 3064 3065 3064 3064 3065 3065 3065 3064 3063 3063 3062
3093 3092 3091 3090 3088 3087 3086 3086 3085 3084 3083 3083 3083 3082 3082 3082 3082 3081 3081 3081 3080 3079 3079 3078 3078 3078 3076 3076 3076 3076 3075 3074 3074 3074 3074 3073 3072 3072 3071 3071 3072 3071 3070 3070 3069 3068 3068 3068 3068 3067 3066 3066 3066 3066 3066 3066 3066 3066 3065 3065 3065 3064 3063 3063 3063 3062 3061 3062 3062 3062 3062 3061 3058 3057 3059 3061 3061 3061 3061 3061 3061 3061 3060 3061 3060 3059 3059
3091 3089 3088 3087 3086 3085 3084 3083 3082 3081 3081 3080 3079 3079 3079 3079 3079 3079 3079 3079 3078 3077 3077 3076 3075 3075 3074 3073 3074 3073 3072 3071 3071 3072 3072 3071 3070 3070 3069 3069 3069 3070 3069 3068 3067 3067 3067 3066 3065 3065 3064 3064 3065 3064 3063 3064 3064 3063 3063 3063 3063 3063 3061 3061 3062 3060 3058 3059 3060 3059 3059 3058 3054 3052 3055 3057 3058 3057 3057 3057 3057 3056 3056 3057 3056 3056 3055
3089 3088 3086 3085 3083 3082 3081 3080 3080 3079 3078 3078 3077 3076 3076 3076 3076 3076 3076 3076 3075 3075 3074 3074 3072 3072 3071 3071 3071 3070 3070 3068 3068 3069 3070 3069 3068 3068 3067 3067 3067 3067 3067 3066 3065 3065 3065 3063 3063 3062 3062 3062 3062 3061 3061 3061 3060 3060 3060 3060 3059 3060 3059 3059 3060 3058 3056 3057 3057 3056 3057 3054 3048 3047 3051 3053 3054 3054 3054 3054 3053 3053 3053 3053 3053 3053 3052
3087 3086 3084 3082 3081 3080 3079 3078 3077 3076 3076 3076 3075 3074 3074 3073 3073 3073 3073 3073 3073 3072 3072 3071 3070 3068 3068 3068 3069 3068 3067 3067 3066 3066 3066 3066 3066 3066 3065 3064 3064 3063 3063 3063 3063 3063 3062 3061 3060 3059 3059 3058 3058 3057 3057 3057 3057 3057 3057 3056 3056 3056 3056 3056 3057 3056 3054 3054 3054 3054 3053 3048 3043 3044 3048 3050 3050 3050 3050 3050 3050 3050 3050 3050 3050 3050 3050
3086 3084 3082 3081 3079 3078 3077 3076 3075 3074 3074 3073 3073 3072 3072 3071 3071 3071 3070 3071 3071 3070 3069 3068 3066 3065 3065 3066 3066 3065 3064 3065 3065 3064 3063 3064 3064 3064 3063 3062 3061 3060 3060 3059 3060 3059 3059 3058 3057 3056 3056 3055 3054 3054 3052 3051 3052 3053 3053 3052 3051 3051 3052 3053 3053 3053 3052 3051 3052 3052 3047 3041 3040 3044 3046 3046 3047 3048 3048 3047 3047 3047 3047 3047 3047 3047 3046
3084 3082 3081 3079 3077 3076 3075 3074 3073 3072 3071 3071 3071 3070 3069 3069 3069 3068 3068 3068 3068 3067 3066 3065 3064 3064 3063 3063 3063 3062 3062 3063 3063 3062 3062 3061 3061 3061 3060 3059 3058 3058 3057 3057 3056 3055 3055 3055 3054 3053 3053 3051 3050 3050 3049 3048 3047 3048 3049 3048 3047 3046 3047 3048 3048 3048 3048 3047 3048 3046 3040 3037 3040 3042 3043 3044 3044 3045 3045 3045 3044 3044 3044 3044 3044 3043 3043
3083 3081 3079 3078 3076 3075 3073 3072 3071 3070 3069 3069 3069 3068 3067 3066 3066 3066 3065 3065 3065 3063 3062 3062 3063 3062 3062 3061 3060 3060 3060 3060 3060 3060 3060 3059 3059 3058 3057 3056 3056 3055 3055 3054 3053 3052 3052 3051 3050 3049 3048 3047 3046 3045 3045 3045 3044 3045 3046 3045 3045 3044 3043 3043 3044 3043 3043 3043 3041 3040 3037 3036 3037 3038 3039 3041 3040 3041 3042 3041 3040 3040 3040 3040 3040 3040 3040
3082 3080 3078 3076 3075 3073 3072 3071 3069 3068 3067 3067 3067 3066 3065 3064 3063 3063 3063 3063 3063 3060 3058 3059 3060 3061 3060 3059 3058 3058 3057 3057 3057 3057 3057 3057 3056 3055 3054 3054 3053 3053 3052 3051 3050 3050 3050 3049 3048 3047 3046 3045 3045 3042 3041 3041 3041 3042 3043 3042 3041 3041 3039 3039 3039 3038 3039 3039 3039 3038 3037 3034 3033 3034 3035 3035 3035 3036 3037 3037 3037 3037 3036 3036 3037 3037 3037
3080 3078 3077 3075 3074 3072 3071 3069 3068 3066 3065 3065 3064 3064 3063 3061 3060 3060 3060 3060 3060 3058 3056 3055 3056 3058 3058 3057 3056 3055 3054 3054 3053 3053 3053 3053 3053 3052 3052 3052 3051 3051 3050 3049 3048 3048 3047 3047 3047 3046 3045 3045 3045 3042 3040 3039 3038 3038 3039 3038 3038 3037 3036 3035 3036 3036 3036 3037 3036 3035 3034 3033 3032 3032 3031 3031 3032 3033 3033 3034 3033 3033 3033 3033 3033 3033 3033
3079 3077 3075 3074 3072 3071 3069 3067 3066 3065 3064 3062 3062 3061 3060 3059 3058 3058 3058 3058 3058 3057 3054 3053 3054 3054 3054 3054 3054 3053 3052 3051 3050 3049 3049 3049 3049 3050 3051 3050 3049 3049 3048 3047 3046 3046 3045 3045 3045 3045 3044 3044 3044 3042 3040 3039 3038 3036 3035 3035 3035 3035 3034 3034 3034 3033 3034 3035 3034 3032 3031 3031 3030 3030 3029 3029 3029 3029 3031 3031 3030 3029 3031 3031 3031 3031 3031
3078 3076 3074 3073 3071 3069 3068 3066 3064 3063 3062 3061 3059 3058 3058 3057 3056 3056 3055 3055 3055 3054 3052 3051 3052 3052 3051 3051 3052 3051 3050 3049 3048 3047 3047 3047 3046 3046 3048 3048 3047 3047 3046 3045 3045 3044 3043 3043 3043 3043 3042 3042 3043 3041 3039 3039 3038 3036 3035 3034 3034 3034 3034 3033 3033 3032 3032 3032 3032 3031 3030 3029 3029 3029 3029 3027 3026 3027 3029 3029 3028 3028 3028 3028 3028 3028 3027
3077 3075 3073 3071 3069 3068 3066 3065 3063 3061 3060 3059 3057 3056 3055 3055 3054 3053 3053 3052 3053 3052 3050 3048 3049 3049 3049 3048 3049 3048 3048 3047 3045 3044 3044 3045 3044 3044 3045 3045 3044 3044 3044 3043 3042 3042 3042 3041 3041 3041 3040 3040 3041 3040 3038 3037 3037 3036 3036 3035 3034 3033 3033 3033 3033 3032 3031 3031 3030 3029 3028 3028 3027 3027 3027 3025 3025 3027 3027 3026 3026 3026 3026 3025 3025 3025 3024
3075 3073 3072 3070 3068 3066 3065 3063 3061 3060 3058 3057 3056 3054 3053 3053 3052 3051 3050 3050 3050 3050 3048 3047 3047 3047 3046 3046 3046 3046 3045 3045 3044 3042 3042 3042 3042 3041 3042 3043 3042 3042 3042 3041 3040 3041 3040 3039 3039 3039 3038 3038 3038 3037 3036 3035 3036 3036 3035 3035 3034 3034 3033 3032 3032 3031 3030 3029 3028 3027 3027 3026 3025 3025 3025 3025 3025 3025 3024 3024 3024 3024 3023 3022 3022 3021 3020
3074 3072 3070 3068 3067 3065 3063 3061 3060 3058 3057 3055 3054 3053 3052 3051 3050 3049 3048 3048 3048 3047 3046 3045 3045 3044 3044 3044 3044 3043 3043 3042 3042 3041 3040 3040 3039 3038 3039 3039 3039 3039 3039 3038 3039 3039 3038 3037 3037 3037 3036 3036 3036 3035 3034 3033 3033 3034 3034 3034 3033 3033 3032 3031 3030 3030 3029 3027 3026 3026 3026 3025 3024 3024 3024 3024 3023 3022 3022 3021 3021 3020 3019 3018 3017 3016 3016
3073 3071 3069 3067 3065 3063 3062 3060 3058 3057 3055 3054 3052 3051 3050 3049 3048 3047 3047 3046 3046 3045 3044 3043 3043 3042 3041 3041 3041 3040 3040 3040 3039 3039 3038 3038 3038 3037 3037 3037 3038 3037 3037 3036 3037 3037 3036 3035 3035 3035 3034 3034 3033 3033 3033 3031 3030 3031 3032 3033 3032 3031 3030 3030 3028 3028 3027 3025 3023 3024 3024 3024 3024 3023 3022 3021 3020 3019 3019 3018 3017 3016 3015 3014 3013 3012 3011
3072 3070 3068 3066 3064 3062 3060 3059 3057 3055 3054 3053 3051 3050 3049 3048 3047 3046 3045 3044 3044 3043 3042 3041 3040 3039 3039 3039 3039 3038 3038 3037 3037 3037 3036 3036 3036 3036 3036 3036 3036 3036 3035 3035 3035 3035 3034 3033 3033 3032 3032 3032 3031 3030 3030 3029 3027 3027 3029 3030 3029 3028 3028 3027 3025 3025 3023 3021 3020 3021 3021 3021 3021 3019 3018 3017 3016 3015 3015 3014 3013 3012 3011 3010 3009 3008 3007
3070 3068 3066 3065 3063 3061 3059 3057 3056 3054 3053 3052 3050 3049 3048 3047 3046 3045 3044 3043 3042 3041 3041 3039 3038 3038 3038 3039 3038 3038 3036 3035 3035 3035 3034 3034 3034 3035 3035 3035 3034 3034 3034 3033 3032 3032 3031 3031 3031 3030 3029 3029 3028 3027 3026 3025 3025 3025 3025 3025 3025 3026 3025 3023 3022 3021 3019 3016 3016 3018 3018 3017 3016 3015 3014 3013 3012 3012 3011 3010 3009 3008 3007 3006 3005 3004 3003
3069 3067 3065 3063 3061 3060 3058 3056 3054 3053 3051 3050 3049 3048 3047 3046 3045 3044 3043 3042 3041 3040 3039 3038 3037 3037 3038 3038 3037 3036 3035 3034 3033 3033 3033 3033 3033 3033 3033 3033 3032 3032 3032 3031 3030 3030 3029 3028 3028 3027 3025 3025 3025 3024 3023 3022 3022 3022 3022 3021 3022 3023 3021 3019 3018 3017 3015 3012 3013 3014 3014 3012 3011 3011 3009 3009 3008 3007 3007 3007 3005 3004 3003 3002 3001 3000 2999
3068 3066 3064 3062 3060 3058 3057 3055 3053 3051 3050 3049 3048 3046 3045 3044 3043 3042 3041 3040 3039 3038 3038 3037 3036 3036 3036 3036 3035 3033 3033 3033 3032 3032 3032 3032 3032 3031 3031 3031 3031 3030 3029 3029 3028 3027 3026 3025 3025 3024 3023 3022 3022 3020 3020 3020 3019 3018 3018 3018 3019 3019 3017 3016 3015 3013 3010 3009 3010 3010 3008 3006 3007 3007 3006 3004 3003 3003 3002 3002 3001 3000 2999 2998 2997 2997 2996
3067 3065 3062 3060 3059 3057 3055 3053 3052 3050 3049 3047 3046 3045 3043 3042 3041 3040 3039 3038 3038 3037 3036 3036 3036 3035 3034 3034 3033 3032 3032 3032 3031 3031 3031 3030 3030 3030 3029 3029 3029 3028 3028 3027 3026 3025 3024 3023 3023 3022 3021 3020 3019 3017 3016 3016 3016 3015 3014 3015 3016 3015 3013 3013 3012 3009 3006 3006 3007 3006 3003 3001 3001 3002 3001 3000 3000 2999 2998 2998 2997 2996 2995 2994 2993 2992 2992
3066 3064 3061 3059 3057 3056 3054 3052 3050 3049 3047 3045 3044 3043 3042 3040 3039 3038 3038 3037 3036 3036 3035 3035 3034 3033 3032 3031 3031 3031 3031 3030 3029 3029 3029 3029 3029 3028 3028 3028 3027 3026 3026 3025 3024 3023 3022 3021 3020 3019 3018 3017 3015 3014 3013 3013 3012 3010 3010 3012 3013 3011 3009 3009 3008 3005 3004 3004 3004 3003 3001 2998 2998 2997 2997 2997 2996 2995 2994 2994 2993 2992 2991 2990 2989 2988 2987
3065 3063 3060 3058 3056 3054 3053 3051 3049 3047 3046 3044 3042 3041 3040 3038 3037 3037 3037 3036 3035 3034 3034 3033 3032 3031 3030 3030 3029 3029 3028 3028 3027 3028 3028 3027 3027 3027 3026 3026 3025 3024 3024 3023 3022 3021 3020 3019 3018 3017 3016 3015 3013 3010 3009 3009 3007 3006 3007 3008 3008 3007 3006 3006 3004 3002 3001 3000 3000 2999 2997 2995 2994 2994 2993 2993 2993 2992 2991 2990 2989 2988 2988 2987 2985 2984 2983
3064 3062 3059 3057 3055 3053 3051 3049 3048 3046 3044 3042 3041 3040 3038 3037 3036 3035 3035 3034 3033 3032 3031 3030 3030 3029 3029 3029 3029 3028 3028 3027 3026 3026 3026 3026 3026 3025 3025 3024 3024 3023 3022 3020 3019 3018 3017 3016 3015 3015 3014 3013 3011 3008 3006 3005 3003 3002 3003 3005 3004 3003 3002 3002 3000 2999 2996 2996 2996 2995 2993 2992 2991 2990 2989 2989 2989 2988 2986 2985 2985 2984 2984 2983 2982 2980 2979
3063 3060 3058 3056 3054 3052 3050 3048 3046 3044 3043 3041 3039 3038 3038 3037 3035 3034 3032 3031 3030 3030 3029 3029 3029 3028 3028 3028 3028 3027 3027 3026 3025 3025 3025 3025 3024 3024 3023 3023 3022 3021 3019 3018 3017 3016 3015 3013 3013 3012 3011 3011 3008 3005 3004 3002 3000 2998 3000 3001 3000 2998 2997 2996 2995 2994 2993 2992 2991 2990 2988 2988 2988 2987 2985 2985 2985 2983 2981 2981 2981 2980 2979 2979 2978 2977 2976
3061 3059 3057 3055 3053 3050 3048 3047 3045 3043 3041 3040 3039 3038 3037 3036 3035 3033 3031 3030 3029 3028 3028 3028 3028 3028 3028 3027 3027 3026 3026 3025 3025 3025 3024 3023 3022 3022 3021 3020 3019 3018 3017 3016 3014 3013 3012 3011 3010 3009 3008 3007 3005 3003 3001 2999 2997 2996 2996 2996 2995 2993 2992 2991 2990 2990 2989 2988 2987 2984 2983 2983 2984 2983 2981 2980 2980 2979 2977 2977 2977 2976 2975 2974 2974 2973 2973
3060 3058 3056 3054 3052 3049 3047 3045 3044 3042 3041 3039 3038 3037 3036 3035 3034 3033 3031 3030 3029 3028 3027 3027 3027 3027 3027 3026 3026 3026 3025 3024 3023 3023 3023 3022 3021 3020 3019 3018 3017 3015 3014 3013 3012 3010 3009 3008 3007 3006 3006 3005 3003 3000 2997 2996 2994 2993 2992 2991 2990 2989 2988 2987 2986 2985 2985 2984 2983 2980 2978 2978 2979 2979 2977 2976 2975 2975 2974 2973 2973 2972 2971 2971 2970 2971 2970
3059 3057 3055 3053 3050 3048 3046 3044 3043 3041 3040 3038 3037 3036 3035 3034 3032 3031 3030 3029 3028 3028 3027 3027 3026 3026 3026 3025 3025 3024 3024 3023 3022 3021 3021 3020 3019 3018 3016 3015 3014 3013 3012 3011 3009 3008 3007 3006 3004 3003 3003 3002 3001 2998 2995 2993 2992 2991 2989 2987 2986 2985 2983 2981 2981 2980 2980 2979 2978 2977 2975 2974 2974 2974 2973 2972 2972 2971 2971 2970 2970 2969 2968 2968 2968 2968 2968
3058 3056 3054 3052 3049 3047 3045 3043 3041 3040 3039 3038 3036 3035 3034 3032 3031 3030 3029 3028 3028 3027 3027 3026 3026 3025 3025 3024 3024 3023 3023 3022 3021 3020 3019 3018 3017 3016 3014 3013 3012 3011 3010 3008 3007 3006 3005 3003 3002 3001 3000 2999 2998 2995 2993 2991 2989 2987 2985 2984 2982 2980 2977 2976 2976 2976 2976 2975 2974 2973 2972 2970 2969 2969 2969 2969 2969 2968 2968 2967 2967 2966 2966 2965 2966 2966 2966
3056 3054 3052 3050 3048 3045 3043 3041 3039 3038 3037 3036 3035 3034 3032 3031 3029 3029 3028 3027 3027 3027 3026 3026 3025 3025 3024 3023 3023 3022 3022 3021 3020 3019 3017 3016 3015 3014 3012 3010 3009 3009 3008 3006 3005 3004 3003 3002 3000 2998 2997 2996 2995 2993 2991 2989 2986 2983 2982 2980 2978 2976 2973 2971 2971 2971 2971 2971 2970 2969 2968 2967 2967 2966 2966 2966 2966 2965 2965 2965 2964 2964 2964 2964 2964 2964 2964
3054 3053 3050 3048 3046 3044 3042 3040 3038 3037 3035 3033 3032 3031 3030 3029 3028 3028 3027 3027 3027 3026 3026 3026 3025 3024 3024 3023 3022 3021 3020 3019 3018 3017 3016 3014 3013 3012 3010 3009 3007 3006 3005 3004 3003 3002 3001 3000 2998 2997 2995 2994 2993 2991 2989 2986 2983 2980 2979 2978 2976 2973 2970 2968 2968 2968 2968 2967 2967 2966 2966 2965 2965 2964 2964 2964 2963 2963 2963 2963 2963 2962 2963 2963 2963 2963 2963
3052 3050 3048 3047 3044 3042 3040 3038 3037 3035 3033 3032 3030 3029 3029 3028 3028 3027 3027 3027 3027 3026 3026 3025 3025 3024 3024 3023 3022 3020 3019 3018 3017 3015 3014 3013 3011 3010 3009 3008 3006 3004 3003 3002 3001 3000 2999 2998 2997 2995 2994 2992 2991 2989 2986 2983 2981 2979 2977 2976 2974 2972 2970 2968 2967 2967 2966 2966 2965 2965 2964 2964 2963 2962 2962 2961 2961 2961 2961 2961 2961 2961 2961 2961 2961 2962 2963
3050 3048 3047 3045 3043 3041 3039 3037 3035 3033 3032 3031 3029 3029 3028 3028 3027 3027 3027 3027 3026 3026 3025 3025 3024 3024 3023 3022 3021 3020 3018 3017 3016 3014 3013 3012 3010 3009 3008 3007 3005 3003 3002 3001 3000 2999 2998 2996 2995 2993 2992 2990 2989 2987 2984 2981 2979 2978 2976 2975 2973 2972 2971 2969 2968 2967 2966 2965 2964 2963 2962 2962 2961 2960 2960 2960 2959 2959 2959 2959 2959 2959 2960 2960 2960 2960 2961
3048 3047 3045 3043 3041 3039 3037 3035 3033 3032 3031 3030 3029 3028 3028 3027 3027 3027 3027 3026 3026 3025 3025 3024 3024 3023 3022 3021 3020 3019 3018 3016 3015 3013 3012 3011 3009 3008 3007 3006 3004 3002 3001 3000 2999 2998 2997 2995 2994 2992 2990 2988 2986 2984 2981 2979 2978 2977 2975 2974 2973 2972 2971 2969 2968 2967 2965 2964 2963 2962 2961 2960 2960 2959 2959 2959 2959 2958 2958 2957 2957 2958 2958 2959 2959 2959 2960
3047 3045 3044 3042 3039 3037 3035 3033 3032 3031 3030 3029 3029 3028 3028 3027 3027 3026 3026 3026 3025 3025 3025 3024 3024 3023 3022 3021 3020 3018 3017 3015 3013 3012 3011 3009 3008 3007 3006 3005 3003 3002 3000 3000 2999 2997 2996 2995 2993 2992 2990 2986 2983 2981 2979 2978 2977 2976 2975 2974 2973 2972 2971 2970 2968 2966 2965 2963 2962 2960 2959 2959 2959 2959 2959 2958 2958 2958 2958 2957 2957 2958 2958 2959 2960 2960 2960
3044 3043 3042 3040 3038 3036 3034 3033 3031 3031 3030 3029 3029 3028 3028 3027 3027 3026 3026 3026 3025 3025 3024 3023 3023 3022 3021 3020 3018 3017 3015 3014 3012 3011 3009 3008 3007 3006 3005 3004 3003 3002 3000 2999 2998 2997 2996 2994 2993 2991 2988 2985 2982 2980 2978 2977 2976 2975 2974 2974 2973 2972 2971 2970 2968 2967 2965 2963 2961 2960 2959 2959 2959 2959 2959 2959 2959 2959 2959 2959 2959 2959 2960 2960 2961 2961 2961
3042 3041 3039 3037 3036 3034 3033 3032 3031 3030 3030 3029 3029 3029 3028 3027 3027 3027 3026 3025 3024 3024 3023 3022 3021 3021 3020 3018 3017 3016 3014 3012 3011 3010 3009 3007 3006 3005 3004 3003 3002 3001 3000 2999 2998 2997 2995 2994 2992 2990 2987 2984 2982 2980 2978 2977 2976 2975 2975 2974 2974 2973 2972 2970 2969 2968 2966 2965 2963 2961 2961 2961 2961 2961 2961 2961 2960 2960 2960 2960 2960 2961 2961 2961 2962 2962 2962
3041 3039 3038 3036 3034 3033 3032 3031 3030 3029 3029 3028 3028 3028 3028 3027 3027 3026 3025 3024 3023 3022 3022 3021 3020 3019 3019 3017 3015 3014 3013 3011 3010 3009 3008 3007 3006 3005 3003 3002 3001 3000 2999 2998 2997 2997 2996 2994 2992 2989 2987 2984 2982 2981 2979 2978 2976 2976 2975 2975 2974 2974 2973 2971 2970 2969 2967 2966 2965 2964 2963 2963 2963 2962 2962 2962 2962 2962 2962 2962 2962 2962 2963 2964 2964 2963 2964
3040 3038 3037 3035 3033 3032 3031 3030 3029 3028 3028 3028 3027 3027 3027 3026 3025 3024 3023 3022 3021 3021 3020 3019 3019 3018 3017 3016 3014 3013 3011 3010 3009 3008 3007 3006 3005 3004 3003 3002 3001 2999 2998 2998 2997 2996 2995 2994 2992 2989 2987 2985 2983 2981 2980 2979 2978 2977 2976 2976 2976 2975 2974 2972 2971 2970 2969 2968 2967 2966 2965 2965 2964 2964 2964 2963 2963 2963 2963 2964 2964 2965 2965 2965 2965 2965 2966
3038 3037 3035 3033 3032 3031 3030 3029 3028 3028 3027 3027 3026 3026 3025 3025 3024 3023 3022 3021 3020 3019 3019 3018 3017 3016 3015 3014 3013 3011 3010 3009 3008 3007 3006 3005 3004 3003 3002 3001 3000 2999 2998 2997 2997 2996 2995 2993 2991 2989 2987 2986 2984 2982 2981 2980 2979 2979 2978 2978 2977 2976 2975 2974 2973 2972 2972 2971 2970 2969 2968 2968 2967 2966 2966 2966 2966 2966 2966 2966 2967 2968 2968 2968 2968 2968 2969
3037 3035 3033 3032 3030 3029 3029 3028 3027 3026 3026 3025 3025 3025 3024 3023 3022 3021 3020 3020 3019 3018 3017 3016 3016 3015 3014 3013 3011 3010 3009 3008 3007 3006 3005 3004 3003 3002 3001 3000 2999 2998 2998 2997 2996 2995 2994 2992 2990 2988 2987 2986 2985 2983 2983 2982 2981 2980 2980 2980 2979 2978 2978 2977 2975 2974 2973 2973 2973 2972 2972 2971 2971 2970 2970 2969 2969 2970 2970 2970 2971 2971 2971 2971 2971 2972 2972
3035 3033 3032 3030 3029 3028 3027 3026 3025 3024 3024 3023 3023 3022 3022 3021 3020 3019 3018 3017 3017 3016 3015 3015 3014 3013 3012 3011 3010 3009 3008 3007 3005 3005 3004 3003 3002 3001 3000 2999 2998 2998 2997 2997 2996 2995 2993 2992 2990 2988 2987 2986 2985 2985 2984 2983 2982 2982 2981 2981 2981 2980 2980 2979 2978 2976 2976 2975 2975 2974 2974 2974 2974 2974 2973 2973 2973 2973 2973 2973 2974 2974 2974 2974 2974 2974 2974
3033 3032 3030 3029 3028 3027 3025 3024 3022 3021 3021 3020 3020 3019 3019 3019 3018 3017 3016 3016 3015 3014 3014 3013 3012 3011 3010 3009 3008 3007 3006 3005 3004 3004 3003 3002 3002 3001 2999 2998 2997 2997 2996 2996 2994 2993 2992 2991 2989 2988 2986 2986 2985 2985 2985 2984 2983 2983 2983 2983 2982 2982 2982 2981 2980 2979 2978 2978 2977 2976 2976 2976 2976 2976 2976 2976 2976 2976 2976 2976 2976 2976 2976 2976 2976 2976 2977
3031 3030 3029 3027 3026 3025 3023 3021 3019 3018 3018 3017 3017 3017 3016 3016 3016 3015 3014 3013 3013 3012 3012 3011 3010 3009 3008 3007 3006 3005 3005 3004 3003 3002 3002 3001 3000 3000 2998 2997 2996 2996 2995 2994 2993 2991 2990 2989 2988 2986 2985 2985 2985 2985 2985 2985 2985 2984 2984 2984 2984 2984 2983 2983 2982 2981 2981 2980 2980 2979 2979 2978 2978 2978 2978 2978 2978 2978 2978 2979 2979 2979 2979 2979 2979 2979 2979
3029 3028 3027 3025 3024 3022 3020 3019 3017 3015 3015 3015 3014 3014 3014 3013 3013 3013 3013 3012 3011 3010 3010 3009 3009 3008 3007 3006 3005 3004 3003 3002 3002 3001 3000 2999 2999 2998 2997 2995 2995 2994 2993 2992 2991 2989 2988 2987 2986 2985 2983 2983 2984 2984 2985 2985 2985 2985 2984 2984 2985 2985 2985 2984 2984 2983 2983 2982 2982 2982 2981 2981 2981 2981 2981 2980 2981 2981 2981 2981 2981 2981 2981 2981 2981 2981 2980
3027 3025 3024 3023 3022 3019 3017 3016 3014 3013 3012 3011 3011 3011 3011 3011 3011 3012 3011 3010 3009 3009 3008 3007 3007 3006 3005 3004 3003 3003 3002 3000 2999 2998 2998 2997 2997 2996 2995 2994 2993 2992 2991 2989 2988 2986 2985 2984 2983 2982 2981 2982 2982 2983 2984 2985 2985 2985 2985 2985 2985 2985 2985 2986 2986 2985 2985 2985 2985 2984 2984 2983 2983 2983 2983 2982 2983 2983 2983 2983 2982 2982 2982 2982 2982 2982 2981